Theta_e
304 304 304 304 303 303 303 302 302 301 300 299 298 296 294 294 294 294 295 295 294 293 293 295 298 300 301 300 300 299 299 299 300 299 299 298 296 295 293 292 291 290 290 290 289 290 290 291 291 291 291 291
303 302 302 301 301 301 301 301 301 300 300 298 295 293 292 292 292 292 293 293 293 293 292 292 294 297 299 299 298 297 297 297 298 298 298 297 295 293 291 291 290 289 289 289 289 289 290 290 290 291 291 291
300 301 299 297 297 298 298 299 300 300 299 295 292 292 292 292 292 293 294 294 293 293 293 292 292 293 295 298 297 296 294 294 295 296 296 295 293 291 291 290 290 290 290 290 290 290 290 289 289 291 291 290
295 296 295 293 293 293 294 295 296 297 296 294 293 293 293 292 295 296 296 295 294 294 293 293 292 292 292 294 295 294 292 291 292 294 295 293 291 291 290 291 291 291 291 291 291 290 290 290 289 290 290 290
296 293 294 296 295 294 293 293 293 293 296 297 296 296 296 295 297 298 297 296 295 294 294 293 292 292 292 291 292 292 291 290 290 292 293 292 290 290 290 290 291 291 291 290 290 290 290 290 290 290 289 289
300 295 297 300 299 297 295 294 293 293 297 299 298 299 299 296 297 297 296 296 295 295 294 293 292 293 292 292 291 291 291 291 290 291 291 291 290 290 290 290 290 290 290 290 290 289 289 289 290 289 289 289
300 298 299 300 298 297 296 295 295 295 296 297 297 299 298 296 296 297 297 295 295 295 294 293 294 293 293 293 292 292 291 291 291 291 291 291 290 290 290 290 290 290 289 289 289 289 289 289 289 288 288 288
298 298 298 297 296 296 296 296 297 296 297 297 297 297 296 296 296 296 296 295 295 295 294 294 294 294 293 293 293 292 292 291 292 292 291 291 291 291 291 290 290 289 289 289 289 289 288 289 288 288 288 288
297 297 296 296 296 296 296 296 296 297 297 297 296 295 295 296 296 296 295 295 295 295 294 294 294 294 293 293 293 293 292 292 292 291 291 291 291 291 290 290 290 289 289 288 288 288 288 288 288 287 287 287
296 296 295 296 296 296 296 296 296 296 296 296 295 295 295 295 295 295 295 295 295 294 294 294 293 293 293 293 292 292 292 292 291 291 291 291 291 291 290 290 290 289 289 288 288 288 288 288 287 287 287 287
296 296 296 296 296 296 296 296 296 295 295 295 294 294 294 294 294 294 294 294 294 294 293 293 293 293 292 292 292 292 292 291 291 291 291 291 290 290 290 290 290 290 289 289 289 288 288 288 287 287 287 287
296 296 295 295 295 295 295 295 295 295 294 294 293 293 293 293 293 293 293 293 293 293 292 292 292 292 292 292 292 292 291 291 291 291 290 290 290 290 290 290 290 289 289 289 289 289 289 288 288 287 287 287
295 295 295 294 294 294 294 294 294 294 293 293 292 292 292 292 292 292 292 292 292 292 292 292 292 292 292 292 292 291 291 291 291 291 290 290 290 290 290 289 289 289 289 289 289 289 289 288 288 288 287 287
294 294 293 293 293 293 293 292 292 292 292 292 291 290 290 290 290 290 291 291 291 290 290 291 291 292 292 291 291 291 291 291 291 290 290 290 290 290 290 289 289 289 289 289 289 289 289 288 288 288 288 287
292 292 291 291 291 291 291 291 291 290 290 290 290 289 289 289 289 289 290 290 289 289 289 290 291 291 291 291 291 291 291 291 291 290 290 289 290 290 290 290 290 289 289 289 289 289 289 288 288 288 288 287
291 291 291 290 290 290 290 290 290 290 290 290 290 290 290 289 288 288 289 288 288 288 288 289 290 290 290 291 291 291 291 291 290 290 290 290 290 290 290 290 290 290 290 289 289 289 289 289 288 288 288 287
290 290 290 290 290 290 290 290 290 290 290 290 290 289 289 288 287 288 289 287 287 287 287 288 289 290 290 290 290 291 290 290 290 290 290 290 289 290 289 290 290 290 290 290 290 289 289 289 289 288 288 288
289 289 289 289 289 289 289 289 289 289 289 289 289 288 288 287 286 287 288 287 287 287 287 288 288 289 289 289 290 290 289 288 289 289 289 289 289 289 289 289 289 289 289 289 290 290 289 289 289 289 288 288
288 288 288 288 288 288 288 289 288 288 288 288 288 287 286 286 285 287 287 286 286 286 286 287 287 288 288 288 288 288 287 287 288 288 288 289 289 289 289 289 289 289 289 289 289 289 289 289 289 289 289 288
287 287 287 287 287 287 287 288 287 287 287 287 286 286 285 284 285 287 286 285 285 284 285 286 286 286 287 287 287 286 286 286 287 287 287 288 288 288 288 288 289 289 289 289 289 289 289 289 289 289 289 288
285 285 286 286 286 286 286 286 286 286 286 286 285 285 284 284 285 286 284 283 283 283 284 284 284 285 285 285 285 285 285 285 286 286 287 287 287 287 287 287 287 288 288 288 288 288 288 288 288 289 289 288
284 284 284 284 285 285 285 285 285 285 285 285 284 283 283 283 283 284 282 280 281 281 281 282 282 283 283 283 283 283 283 284 285 285 285 285 286 286 286 286 287 287 287 287 287 288 288 288 288 288 288 288
283 283 283 283 283 283 283 284 284 284 284 284 283 282 282 283 282 282 280 279 280 280 280 280 281 281 281 281 281 281 282 282 283 283 283 283 284 284 285 285 286 286 286 287 287 287 287 288 288 288 288 288
281 281 281 281 281 282 282 283 283 283 283 282 282 281 281 281 280 279 278 278 279 278 279 279 279 280 280 280 280 280 280 281 281 281 281 282 282 283 284 284 285 285 286 286 286 286 286 287 287 287 287 288
279 280 280 279 280 280 280 281 281 282 281 280 280 279 279 279 278 278 277 277 278 278 278 278 279 279 279 280 279 279 279 280 280 280 281 281 281 282 282 283 283 284 285 285 285 286 286 286 286 287 287 287
278 278 279 278 278 278 278 279 279 279 279 279 278 277 277 277 277 276 276 276 277 277 278 278 278 279 278 278 277 277 277 278 279 279 279 280 280 281 281 282 282 283 283 284 284 285 285 285 286 286 286 287
277 277 277 277 277 277 277 277 278 278 278 277 277 276 276 276 276 276 276 276 276 277 277 278 278 277 277 276 275 275 276 276 277 277 278 279 279 280 280 280 281 281 282 282 283 284 284 285 285 285 285 285
277 276 276 276 276 276 276 276 277 277 277 276 276 276 276 276 275 276 276 276 276 276 277 277 276 276 275 274 273 274 275 275 275 276 277 277 278 278 278 278 279 280 281 281 282 283 284 285 285 285 285 285
276 276 276 276 276 276 276 276 276 276 276 276 275 275 275 275 275 276 275 276 276 275 276 276 275 274 273 272 272 273 274 274 275 275 276 276 276 276 276 277 278 278 279 280 281 282 283 284 285 285 284 284
275 275 275 275 275 275 275 275 276 276 275 275 274 274 274 274 275 275 275 275 275 274 275 275 274 273 272 271 272 272 273 273 274 274 274 274 274 274 275 276 276 277 278 278 279 280 281 282 283 284 284 284
275 275 275 274 274 275 275 274 275 275 274 274 274 273 273 273 274 274 274 274 274 273 274 274 273 272 271 271 271 272 272 273 273 273 273 273 273 273 274 274 275 276 276 277 277 278 279 280 281 282 283 283
Wind_Speed
14 14 13 12 12 11 11 10 9 9 9 9 8 7 6 5 5 5 5 5 6 5 4 3 5 7 7 6 6 7 7 7 7 6 6 7 8 10 11 12 13 13 13 13 14 15 14 13 13 13 11 11
14 12 11 11 11 10 9 9 8 7 7 6 5 4 5 5 5 6 6 7 7 6 6 5 4 4 6 6 6 6 7 7 7 7 7 8 11 13 14 14 14 14 13 13 14 15 14 14 13 12 10 11
12 10 9 8 8 8 7 7 6 5 3 2 2 3 5 5 6 6 7 9 9 7 8 8 7 6 5 6 6 8 9 8 7 7 7 9 13 15 15 14 14 13 12 13 14 14 14 13 12 10 9 11
9 8 7 6 5 5 4 4 3 2 0 2 3 3 5 6 8 8 7 9 9 10 11 11 11 10 8 7 7 10 12 12 10 8 8 11 13 15 14 12 11 10 12 14 14 14 14 11 9 9 10 12
7 6 6 4 3 2 1 1 2 3 3 5 5 6 8 8 9 9 7 7 7 9 11 13 13 12 12 11 10 12 13 14 12 10 10 11 12 13 11 10 10 10 12 14 14 15 14 10 7 7 12 13
5 5 6 3 3 3 3 4 5 5 4 5 6 7 8 7 9 6 3 5 8 9 12 14 14 12 14 13 12 12 13 14 11 10 10 10 11 10 8 9 10 10 12 13 13 14 13 10 7 9 12 11
3 4 5 2 1 3 4 6 7 5 2 3 4 5 6 6 7 5 5 8 11 11 13 12 11 12 14 13 11 11 13 13 9 11 11 9 11 9 7 8 7 7 9 10 10 12 11 9 10 12 12 9
4 5 4 1 1 2 3 4 6 5 2 2 2 4 4 5 6 8 7 9 10 11 11 10 11 13 13 12 10 11 13 11 8 10 11 10 11 8 7 8 7 7 8 7 8 9 8 10 12 13 12 9
4 4 3 2 1 1 1 2 3 3 3 3 3 3 4 4 6 7 7 6 8 9 9 9 11 12 12 11 10 12 12 9 8 10 10 10 10 8 7 8 9 9 10 8 8 8 8 11 12 12 12 9
3 2 2 3 3 4 3 4 4 4 4 5 6 6 6 6 6 8 6 5 7 8 7 8 9 9 10 9 10 12 11 8 8 10 9 9 9 9 9 11 11 11 11 10 10 10 10 11 12 12 12 10
5 4 3 4 5 6 7 7 6 6 6 6 6 6 6 6 7 7 6 6 6 7 7 7 8 8 9 9 9 10 9 10 10 9 8 9 9 10 10 11 11 12 12 10 11 12 11 11 12 13 12 10
8 8 7 8 8 9 9 9 9 8 8 9 9 7 6 6 7 7 8 8 6 8 8 8 9 9 9 9 9 9 9 10 9 8 8 9 10 11 11 11 11 12 12 11 11 12 11 12 14 14 12 11
11 11 11 11 11 11 10 10 10 9 9 10 10 9 9 8 8 8 10 10 8 9 9 9 10 10 10 9 9 10 10 9 9 9 9 10 11 11 11 11 11 11 12 12 12 12 13 14 14 14 13 12
14 13 13 13 12 12 11 11 10 10 10 10 9 10 11 11 11 10 10 11 10 10 11 10 10 11 11 10 10 11 11 9 8 9 10 11 13 13 12 13 13 13 13 13 12 12 14 15 14 14 13 12
16 15 15 14 14 13 13 12 11 11 11 10 10 11 12 13 13 11 8 10 11 12 12 10 11 12 12 12 11 12 12 10 9 11 14 15 15 15 15 15 13 12 13 13 13 13 13 14 15 15 14 13
17 17 15 14 14 14 13 12 12 12 11 11 11 11 12 14 15 11 9 11 12 12 12 11 11 12 12 12 12 12 13 12 14 15 16 15 14 15 15 16 14 12 13 13 13 12 12 13 14 15 14 14
17 16 16 15 14 14 13 12 12 12 11 11 10 11 12 15 16 12 10 13 13 12 12 11 12 12 12 12 13 12 13 14 15 15 15 15 15 16 16 17 16 14 14 14 14 14 14 14 14 15 15 15
17 17 16 16 15 15 14 13 13 12 12 11 9 11 12 15 17 11 11 13 13 13 12 11 12 11 12 13 13 13 13 15 15 15 16 16 16 17 16 16 16 16 17 17 16 15 14 15 16 16 16 15
19 18 17 17 16 15 15 13 13 13 11 11 10 10 12 16 16 10 11 13 13 13 11 11 12 11 13 14 14 14 14 15 15 15 15 16 16 16 16 16 17 17 18 18 17 17 17 18 18 17 17 16
21 20 18 18 17 16 15 13 13 13 11 10 11 12 15 16 14 10 13 13 13 13 11 11 11 11 13 14 14 14 13 14 14 14 15 15 14 15 15 15 16 17 17 19 19 19 19 18 18 18 18 19
21 21 20 19 17 16 16 14 14 13 11 10 11 14 16 15 12 12 14 14 14 13 11 12 12 12 13 14 14 14 13 13 13 14 15 14 13 14 16 16 18 18 18 19 20 20 20 20 20 21 21 22
21 21 21 20 17 15 15 14 14 12 11 11 12 15 16 13 11 13 16 15 14 13 12 12 12 12 14 14 14 13 13 13 13 14 14 15 15 16 17 18 19 19 20 21 22 22 22 22 22 23 25 26
22 22 23 22 19 17 16 15 14 12 12 13 13 14 15 13 12 13 16 15 14 14 13 12 12 13 13 13 13 13 13 13 14 15 15 17 18 17 17 17 18 20 21 21 22 22 22 22 23 24 25 27
24 23 23 23 20 19 18 16 15 13 12 13 13 13 13 13 13 14 16 15 14 14 13 13 13 12 13 13 13 13 13 14 15 16 16 17 18 18 17 17 17 18 19 21 22 22 23 22 22 24 26 27
24 22 21 22 20 18 18 16 15 14 13 13 13 14 14 12 13 15 15 14 14 14 13 13 13 12 13 12 12 13 13 14 14 15 15 16 16 17 17 18 16 16 18 20 20 19 19 20 21 23 24 26
24 21 18 19 19 17 17 16 15 15 14 14 15 16 14 13 15 16 15 13 13 14 13 13 13 12 13 13 13 14 14 13 14 14 14 15 17 16 16 17 15 15 16 16 16 15 13 15 18 18 20 22
24 22 18 18 20 16 15 16 14 13 13 13 15 15 13 14 16 15 15 14 13 13 13 12 12 12 14 15 16 16 15 15 15 15 15 15 17 17 16 15 15 15 15 16 18 15 8 7 8 10 13 17
23 23 19 18 19 15 14 16 13 11 12 13 14 14 13 15 16 14 14 14 13 13 12 12 12 13 15 17 17 16 16 16 15 15 16 16 16 16 16 16 16 15 15 16 15 10 5 5 6 5 6 13
22 21 19 18 18 15 14 16 13 11 14 14 14 15 14 16 15 13 14 14 13 13 12 12 12 12 15 18 17 15 15 16 15 15 15 15 15 15 16 18 18 17 15 15 15 11 7 5 3 3 6 13
20 19 17 17 17 14 13 14 12 11 14 14 15 15 15 16 14 13 14 13 12 13 12 13 12 12 16 18 17 15 16 15 15 15 16 15 16 15 15 17 19 17 16 15 16 16 14 12 9 8 10 8
18 17 15 15 14 12 11 11 11 11 12 14 14 15 15 15 14 13 13 13 13 13 12 13 12 14 18 18 16 16 16 15 15 16 16 15 16 16 15 17 17 17 17 17 16 16 18 19 19 17 13 7
Wind_Direction
125 123 117 113 108 105 103 100 99 96 92 92 89 85 76 63 53 45 41 33 22 13 14 31 36 36 28 22 16 12 13 11 9 5 1 344 326 319 317 323 324 326 329 329 331 336 342 345 350 352 355 6
120 118 119 119 115 111 105 99 97 94 94 96 86 70 55 42 33 20 14 7 357 356 359 355 353 11 16 10 360 352 351 355 356 349 345 332 321 321 326 329 327 327 328 330 333 336 340 343 347 344 349 358
132 132 138 138 136 135 126 115 109 105 107 99 61 43 33 25 13 3 3 359 350 349 351 350 343 337 345 351 342 327 324 332 336 335 334 323 320 325 331 335 334 334 337 342 343 343 344 347 350 343 346 349
140 142 142 138 140 148 147 139 127 113 340 343 8 18 12 8 6 1 357 355 349 344 340 341 343 339 332 327 321 316 317 326 329 326 324 320 322 329 336 341 342 346 350 353 353 355 356 356 2 347 338 340
132 125 120 103 82 103 106 77 25 7 360 359 354 349 358 4 7 3 353 344 334 337 333 330 336 338 334 326 316 314 319 326 327 325 321 319 328 334 342 352 357 356 350 351 353 356 0 8 11 337 327 335
124 100 105 78 36 15 346 343 347 3 360 348 346 340 346 356 356 347 323 314 306 317 320 319 328 335 336 333 324 319 326 328 327 336 330 325 340 344 353 6 6 352 338 343 347 347 353 0 349 324 328 340
102 82 102 103 24 353 341 337 346 7 358 331 336 315 325 348 341 294 269 297 297 306 317 319 326 332 334 334 331 328 333 331 328 342 336 330 345 350 353 360 356 327 321 331 331 334 341 335 324 325 335 343
102 109 106 85 31 359 351 355 358 5 343 316 303 290 319 332 304 283 290 306 308 321 332 331 325 325 328 327 324 325 334 335 324 333 330 321 332 341 338 331 321 302 308 315 305 315 320 307 312 324 334 335
120 130 91 60 61 32 20 37 32 22 11 5 356 349 353 325 305 323 336 318 315 330 333 326 321 322 327 324 319 318 327 336 319 320 320 310 314 324 312 296 296 298 305 305 295 302 296 293 307 320 327 325
95 106 76 98 94 74 74 66 69 67 46 31 33 32 19 4 348 349 351 323 318 327 322 320 318 316 320 317 313 311 314 316 304 306 308 299 294 296 289 284 291 296 304 308 307 312 306 301 310 318 324 321
79 86 80 97 94 85 77 68 70 65 47 35 45 51 38 26 14 360 349 342 341 339 329 326 321 312 310 307 306 305 300 298 297 298 299 293 288 290 292 292 295 297 301 302 304 310 310 309 309 314 321 315
87 82 77 77 77 77 70 69 68 62 61 58 56 53 47 34 28 24 10 3 355 349 342 333 325 316 311 308 306 302 294 295 298 295 293 295 293 293 295 295 296 298 298 295 299 302 299 300 302 310 316 309
84 79 77 74 70 69 66 68 66 61 63 58 51 45 42 29 24 25 10 1 350 344 341 330 325 320 316 313 311 307 298 292 294 293 293 295 292 291 293 294 296 295 293 291 292 292 288 287 290 302 311 306
77 74 71 68 66 67 64 63 62 59 54 44 35 40 42 29 20 19 3 350 340 335 331 325 322 319 315 311 309 307 303 293 284 283 290 293 289 287 285 288 293 291 290 290 288 290 290 288 284 292 302 300
70 68 65 63 61 61 59 57 57 55 49 37 24 24 28 23 17 12 354 337 334 331 327 324 317 310 306 304 303 302 301 290 277 284 294 296 289 285 283 287 291 288 287 286 285 287 288 288 285 287 295 297
63 62 61 59 57 54 52 52 51 48 44 37 26 10 7 10 10 4 343 333 331 327 323 319 309 303 303 304 301 295 287 282 288 297 301 299 293 290 290 292 294 290 287 287 287 289 289 287 284 286 291 293
58 56 54 51 50 49 46 44 42 40 35 33 28 15 2 354 2 0 336 335 334 327 323 316 309 306 307 305 296 286 282 290 298 300 297 293 291 291 291 291 292 293 292 290 290 289 289 288 284 286 288 288
52 49 47 43 40 40 39 36 34 31 27 25 17 13 359 345 358 360 328 336 335 328 330 323 315 311 311 308 299 293 296 303 302 298 297 296 295 293 292 289 289 291 291 289 290 287 286 286 285 286 285 286
44 42 40 37 33 32 29 28 28 23 18 19 5 358 354 346 358 354 325 337 335 332 338 328 320 318 317 313 309 309 310 310 305 303 303 302 301 299 294 292 291 291 290 289 288 287 286 286 285 281 276 277
38 36 34 31 28 24 23 19 18 15 7 10 1 348 349 349 358 344 327 339 338 336 339 330 325 324 321 318 317 319 317 314 310 310 309 305 304 305 303 300 297 294 293 292 288 287 287 286 285 281 276 275
32 30 29 29 24 19 18 10 6 7 355 357 355 344 346 351 354 335 326 339 339 338 339 331 327 325 324 322 323 323 319 316 314 314 313 310 304 305 310 306 302 298 295 294 291 289 287 284 283 280 280 278
26 23 22 23 21 14 12 4 359 359 352 351 348 345 347 347 346 331 328 339 339 336 335 330 329 327 325 324 326 325 321 319 316 313 313 313 308 305 307 303 301 299 295 294 292 289 287 284 282 280 279 278
22 18 16 15 14 8 4 359 354 352 348 346 342 345 348 340 337 329 331 342 339 336 337 334 334 329 328 328 327 326 324 322 318 314 314 315 312 308 305 300 299 298 296 295 293 293 292 287 283 281 280 278
19 15 11 9 7 1 356 353 350 347 343 343 341 343 345 339 335 328 333 343 338 338 341 339 337 333 334 333 330 332 329 326 324 321 319 317 315 312 308 304 302 302 302 302 301 298 293 289 286 284 283 278
20 14 8 4 2 354 350 347 343 341 338 337 334 333 335 333 330 329 336 342 337 340 342 339 341 340 338 334 332 334 329 326 326 324 323 320 320 317 314 312 308 307 309 307 305 300 297 296 292 288 282 276
19 16 7 359 357 349 345 345 337 332 329 327 327 330 331 328 329 332 336 340 339 341 342 340 341 339 333 328 330 331 327 328 326 323 324 324 325 322 317 316 312 312 313 310 308 310 308 300 296 296 289 283
14 12 6 358 357 349 342 343 335 328 327 324 328 333 334 331 334 336 337 340 340 339 340 337 335 334 328 327 332 333 330 329 325 324 325 325 327 326 322 318 313 314 317 319 321 320 311 299 309 308 299 299
8 6 3 355 355 351 340 341 336 327 329 327 330 335 333 331 334 336 334 336 337 338 337 330 328 329 327 331 336 333 330 326 323 324 325 325 328 330 329 323 317 314 311 314 319 316 299 309 315 285 311 329
4 1 359 351 350 348 341 344 341 333 335 333 333 334 331 330 332 331 332 333 333 336 334 327 325 326 328 335 337 332 327 323 322 324 322 324 329 330 327 320 315 312 307 304 301 295 292 300 292 263 331 338
0 357 353 348 346 343 340 341 339 335 334 332 330 330 327 328 329 327 329 331 330 332 332 327 324 324 330 337 335 329 326 323 324 324 319 320 325 323 319 314 311 308 306 304 297 292 290 285 280 287 307 317
354 353 348 345 339 333 331 327 325 327 327 325 324 325 325 326 326 323 325 326 325 327 327 325 323 323 331 336 332 327 325 323 322 320 319 319 319 316 313 312 311 309 311 309 300 295 295 294 294 294 293 285